This demonstration page uses our WeatherBlox Daily Observations layout. Learn more.

Left ArrowRight Arrow

Hourly Observations for April 19, 2016

Temp ( °F °C ) Dew Point ( °F °C ) Humidity (%) Winds ( mph kmh ) Pressure ( in mb ) Visibility ( mi km ) Precip ( " mm )
12:51 am 00:51 Clear 55 12.8 23 -5 29 29 NW 7 11 29.98 1015 10 16 0.00 0.00
1:51 am 01:51 Clear 57 13.9 20 -6.7 24 24 N 3 6 29.96 1015 10 16 0.00 0.00
2:51 am 02:51 Clear 55 12.8 22 -5.6 28 28 Calm 29.95 1014 10 16 0.00 0.00
3:51 am 03:51 Clear 48 8.9 22 -5.6 36 36 WNW 3 6 29.97 1015 10 16 0.00 0.00
4:51 am 04:51 Clear 48 8.9 23 -5 37 37 Calm 29.98 1015 10 16 0.00 0.00
5:51 am 05:51 Sunny 48 8.9 22 -5.6 36 36 Calm 30.00 1016 10 16 0.00 0.00
6:51 am 06:51 Sunny 51 10.6 24 -4.4 35 35 Calm 30.01 1016 10 16 0.00 0.00
7:51 am 07:51 Sunny 59 15 24 -4.4 26 26 VRB 3 6 30.01 1016 10 16 0.00 0.00
8:51 am 08:51 Sunny 67 19.4 21 -6.1 17 17 SE 10 17 30.00 1016 10 16 0.00 0.00
9:51 am 09:51 Sunny 68 20 21 -6.1 17 17 SSE 8 13 30.00 1016 10 16 0.00 0.00
10:51 am 10:51 Sunny 72 22.2 20 -6.7 14 14 SSW 5 7 29.97 1015 10 16 0.00 0.00
11:51 am 11:51 Sunny 76 24.4 20 -6.7 12 12 undefined N/A 29.94 1014 10 16 0.00 0.00
12:51 pm 12:51 Sunny 78 25.6 18 -7.8 10 10 VRB 5 7 29.92 1013 10 16 0.00 0.00
1:51 pm 13:51 Sunny 80 26.7 17 -8.3 9 9 WNW 13 20 29.88 1012 10 16 0.00 0.00
2:51 pm 14:51 Sunny 82 27.8 16 -8.9 8 8 WNW 12 19 29.86 1011 10 16 0.00 0.00
3:51 pm 15:51 Sunny 83 28.3 15 -9.4 8 8 NW 15 24 29.85 1011 10 16 0.00 0.00
4:51 pm 16:51 Sunny 82 27.8 16 -8.9 8 8 W 12 19 29.84 1011 10 16 0.00 0.00
5:51 pm 17:51 Sunny 79 26.1 17 -8.3 10 10 NW 14 22 29.84 1011 10 16 0.00 0.00
6:51 pm 18:51 Sunny 75 23.9 18 -7.8 11 11 WNW 7 11 29.84 1011 10 16 0.00 0.00
7:51 pm 19:51 Clear 69 20.6 19 -7.2 15 15 WNW 6 9 29.85 1011 10 16 0.00 0.00
8:51 pm 20:51 Clear 66 18.9 20 -6.7 17 17 NNW 8 13 29.86 1011 10 16 0.00 0.00
9:51 pm 21:51 Clear 66 18.9 20 -6.7 17 17 NW 9 15 29.88 1012 10 16 0.00 0.00
10:51 pm 22:51 Clear 62 16.7 21 -6.1 21 21 NNW 8 13 29.88 1012 10 16 0.00 0.00
11:51 pm 23:51 Clear 60 15.6 20 -6.7 21 21 NNE 6 9 29.87 1012 10 16 0.00 0.00

Powered by AerisWeather